Weather History for Rogers, AR

Change the Weather History Date:

Saturday, June 8, 2013

  Actual Average Record
Temperature  
Mean Temperature 68 °F -  
Max Temperature 82 °F 77 °F 91 °F (2011)
Min Temperature 55 °F 60 °F 53 °F (2012)
Cooling Degree Days 4    
Growing Degree Days 18 (Base 50)    
Moisture  
Dew Point 56 °F    
Average Humidity 69    
Maximum Humidity 94    
Minimum Humidity 39    
Precipitation  
Precipitation 0.00 in - - ()
Sea Level Pressure  
Sea Level Pressure 29.93 in    
Wind  
Wind Speed 5 mph (SE)    
Max Wind Speed 12 mph    
Max Gust Speed -    
Visibility 9 miles    
Events      
Averages and records for this station are not official NWS values.
T = Trace of Precipitation, MM = Missing Value Source: NWS Daily Summary

Daily Weather History Graph

Daily Weather History Graph

Search for Another Location

Airport:

Trip Planner

Search our weather history database for the weather conditions in past years. The results will help you decide how hot, cold, wet, or windy it might be!

Date:

Astronomy

Jun. 08, 2013 Rise Set
Actual Time 5:58 AM CDT 8:32 PM CDT
Civil Twilight 5:28 AM CDT 9:03 PM CDT
Nautical Twilight 4:50 AM CDT 9:40 PM CDT
Astronomical Twilight 4:08 AM CDT 10:22 PM CDT
Moon 6:05 AM CDT (6/8) 8:37 PM CDT (6/8)
Length of Visible Light 15h 35m
Length of Day
14h 34m
Waxing Crescent, 0% of the Moon is Illuminated
Jun 8
Waxing Crescent
Jun 16
First Quarter
Jun 23
Full
Jun 29
Last Quarter
Jul 8
New

Hourly Weather History & Observations

Time (CDT) Temp. Heat Index Dew Point Humidity Pressure Visibility Wind Dir Wind Speed Gust Speed Precip Events Conditions
12:57 AM 57.0 °F - 52.0 °F 83% 29.95 in 10.0 mi East 3.5 mph - N/A   Clear
1:57 AM 55.9 °F - 51.1 °F 84% 29.95 in 10.0 mi Calm Calm - N/A   Clear
2:57 AM 55.9 °F - 53.1 °F 90% 29.93 in 10.0 mi SE 5.8 mph - N/A   Clear
3:57 AM 55.9 °F - 54.0 °F 93% 29.94 in 10.0 mi ESE 3.5 mph - N/A   Clear
4:57 AM 55.0 °F - 53.1 °F 93% 29.94 in 10.0 mi ESE 5.8 mph - N/A   Clear
5:57 AM 55.9 °F - 54.0 °F 93% 29.94 in 10.0 mi ESE 8.1 mph - N/A   Clear
6:45 AM 57.2 °F - 55.4 °F 94% 29.97 in 1.5 mi NNE 5.8 mph - N/A   Partly Cloudy
6:47 AM 57.2 °F - 55.4 °F 94% 29.98 in 0.8 mi NE 4.6 mph - N/A   Mist
6:54 AM 57.2 °F - 55.4 °F 94% 29.98 in 1.0 mi Calm Calm - N/A   Mist
6:57 AM 57.2 °F - 55.4 °F 94% 29.98 in 3.0 mi SE 3.5 mph - N/A   Partly Cloudy
6:59 AM 57.9 °F - 55.9 °F 93% 29.95 in 7.0 mi ESE 4.6 mph - N/A   Partly Cloudy
7:57 AM 62.1 °F - 57.9 °F 86% 29.96 in 10.0 mi SSE 5.8 mph - N/A   Clear
8:57 AM 69.1 °F - 57.9 °F 68% 29.96 in 10.0 mi SSE 5.8 mph - N/A   Clear
9:57 AM 75.0 °F - 59.0 °F 57% 29.95 in 10.0 mi SSW 8.1 mph - N/A   Clear
10:57 AM 79.0 °F - 55.0 °F 44% 29.94 in 10.0 mi South 6.9 mph - N/A   Clear
11:57 AM 82.0 °F 81.4 °F 55.0 °F 39% 29.95 in 10.0 mi WSW 5.8 mph - N/A   Clear
12:57 PM 82.9 °F 82.1 °F 55.9 °F 39% 29.94 in 10.0 mi Variable 3.5 mph - N/A   Clear
1:57 PM 82.9 °F 82.1 °F 55.9 °F 39% 29.92 in 10.0 mi SSE 8.1 mph - N/A   Clear
2:57 PM 82.0 °F 81.7 °F 57.0 °F 42% 29.89 in 10.0 mi South 9.2 mph - N/A   Partly Cloudy
3:57 PM 81.0 °F 81.1 °F 57.9 °F 45% 29.88 in 10.0 mi SE 9.2 mph - N/A   Clear
4:57 PM 81.0 °F 81.0 °F 57.0 °F 44% 29.88 in 10.0 mi SE 11.5 mph - N/A   Clear
5:57 PM 80.1 °F 80.6 °F 57.9 °F 47% 29.86 in 10.0 mi SE 9.2 mph - N/A   Clear
6:57 PM 78.1 °F - 59.0 °F 52% 29.87 in 10.0 mi SSE 9.2 mph - N/A   Clear
7:57 PM 75.9 °F - 55.9 °F 50% 29.86 in 10.0 mi SE 9.2 mph - N/A   Clear
8:57 PM 71.1 °F - 57.0 °F 61% 29.88 in 10.0 mi SE 4.6 mph - N/A   Clear
9:57 PM 70.0 °F - 57.0 °F 63% 29.90 in 10.0 mi SE 4.6 mph - N/A   Clear
10:57 PM 66.9 °F - 57.9 °F 73% 29.90 in 10.0 mi SE 6.9 mph - N/A   Clear
11:57 PM 66.9 °F - 59.0 °F 76% 29.90 in 10.0 mi South 8.1 mph - N/A   Clear